[ ตารางข้อมูล ] [ Min-Max ] [ วันนี้2 ] [ วันนี้4 ] [ เทียบ-A 3วัน ] [ เทียบ-B 4วัน ]   

วันนี้4   [ ◀ ช่วงเก่ากว่า ] [ ช่วงที่ 5 ] [ ช่วงใหม่กว่า ▶ ] [ ล่าสุด ]    [ 3 ชั่วโมง ] [ 6 ชั่วโมง ] [ 12 ชั่วโมง ] [ 24 ชั่วโมง ]   วันนี้4

อุณภูมิในตู้ Knockdown4529  ราย 24 ชั่วโมง  ที่วัดได้ ในช่วงวันเวลา 26/08/2026 (07:33) ถึง 27/08/2026 (07:33) 
ความชื้นในตู้ Knockdown4529  ราย 24 ชั่วโมง  ที่วัดได้ ในช่วงวันเวลา 26/08/2026 (07:33) ถึง 27/08/2026 (07:33) 
การใช้ไฟฟ้าในตู้ Knockdown4529  ราย 24 ชั่วโมง  ที่วัดได้ ในช่วงวันเวลา 26/08/2026 (07:33) ถึง 27/08/2026 (07:33) 

  DS18B20SHTC3PZEM-004TWiFi 
IDDate d/m/Y & Timedata1
สูง
data2
ต่ำ
data3
นอก
temp
pcb
hum
pcb
VoltAmpWattrssiTime
 16400  27/08/2026 07:33:10  28.5  28.5  26.7  29.5  66.8  235.3  0.04  4.6  -81  07:33 
 16399  27/08/2026 07:28:23  28.4  28.5  26.5  29.5  66.9  234.1  0.04  4.5  -83  07:28 
 16398  27/08/2026 07:23:40  28.4  28.5  26.4  29.4  66.9  233.8  0.04  4.5  -84  07:23 
 16397  27/08/2026 07:18:56  28.4  28.5  26.0  29.4  66.9  235.3  0.04  4.5  -82  07:18 
 16396  27/08/2026 07:14:12  28.4  28.5  26.2  29.6  67.1  235.1  0.04  4.5  -81  07:14 
 16395  27/08/2026 07:09:29  28.4  28.5  25.9  29.5  67.1  233.7  0.04  4.5  -82  07:09 
 16394  27/08/2026 07:04:46  28.4  28.5  25.9  29.4  67.2  234.4  0.04  4.5  -83  07:04 
 16393  27/08/2026 07:00:03  28.4  28.5  25.7  29.4  67.1  232.6  0.04  4.5  -83  07:00 
 16392  27/08/2026 06:55:19  28.4  28.5  25.5  29.5  67.1  230.3  0.04  4.5  -82  06:55 
 16391  27/08/2026 06:50:36  28.4  28.6  25.4  29.5  67.2  232.1  0.04  4.5  -82  06:50 
 16390  27/08/2026 06:45:52  28.5  28.6  25.4  29.4  67.1  232.3  0.04  4.5  -81  06:45 
 16389  27/08/2026 06:41:09  28.5  28.6  25.5  29.4  67.1  234.1  0.04  4.5  -83  06:41 
 16388  27/08/2026 06:36:26  28.5  28.6  25.5  29.4  67.1  232.3  0.04  4.5  -83  06:36 
 16387  27/08/2026 06:31:42  28.5  28.6  25.6  29.5  67.2  234.1  0.04  4.6  -82  06:31 
 16386  27/08/2026 06:26:59  28.5  28.6  25.7  29.6  67.3  232.0  0.04  4.5  -82  06:26 
 16385  27/08/2026 06:22:14  28.6  28.7  25.5  29.6  67.4  232.6  0.04  4.5  -83  06:22 
 16384  27/08/2026 06:17:31  28.6  28.7  25.8  29.6  67.2  230.2  0.04  4.5  -83  06:17 
 16383  27/08/2026 06:12:48  28.6  28.7  26.1  29.6  67.1  229.3  0.04  4.5  -84  06:12 
 16382  27/08/2026 06:07:59  28.6  28.8  26.2  29.6  67.3  231.2  0.04  4.5  -83  06:07 
 16381  27/08/2026 06:03:16  28.6  28.8  26.2  29.6  67.3  233.0  0.04  4.5  -83  06:03 
 16380  27/08/2026 05:58:30  28.6  28.8  26.2  29.7  67.3  231.6  0.04  4.5  -83  05:58 
 16379  27/08/2026 05:53:47  28.6  28.8  26.2  29.7  67.2  227.0  0.05  4.5  -83  05:53 
 16378  27/08/2026 05:49:04  28.7  28.8  26.0  29.6  67.2  232.6  0.04  4.6  -81  05:49 
 16377  27/08/2026 05:44:20  28.7  28.8  25.9  29.8  67.2  232.3  0.04  4.5  -82  05:44 

Data every 5 minute.


ใช้เวลาประมวลผล 0.02058 วินาที